Location: Cumbre Roja
(10.2766°N, 67.0675°W)
Time: 01:44:17
(UTC+00:00)

RESURS DK-1 - Pass Details

Date: 18 November 2025
Orbit: 524 x 535 km, 69.9° (Epoch: 08 December)

Event Time Altitude Azimuth Distance (km) Brightness Sun altitude
Rises 23:25:08 0° 333° (NNW) 2,670 5.9 -20.1°
Reaches altitude 10° 23:27:22 10° 327° (NNW) 1,779 5.1 -20.7°
Maximum altitude 23:31:10 45° 254° (WSW) 725 3.3 -21.6°
Drops below altitude 10° 23:34:58 10° 180° (S) 1,774 5.1 -22.5°
Sets 23:37:11 0° 174° (S) 2,661 6.0 -23.0°
